History for Miami, FL

Tuesday, January 15, 2013 — View Current Conditions

Jump to Data:

Date:
Airport Code:
Recently Viewed Airport Codes: KMIA
Daily Summary
  Actual Average Record
Temperature
Mean Temperature 74°F 68°F  
Max Temperature 81°F 76°F 83°F (1957)
Min Temperature 66°F 60°F 34°F (1948)
Degree Days
Heating Degree Days 0 2  
Month to date heating degree days 0 30  
Since 1 July heating degree days 16 67  
Cooling Degree Days 9 5  
Month to date cooling degree days 164 75  
Year to date cooling degree days 164 75  
Growing Degree Days 24 (Base 50)    
Moisture
Dew Point 64°F    
Average Humidity 73    
Maximum Humidity 87    
Minimum Humidity 58    
Precipitation
Precipitation 0.00 in 0.04 in 1.22 in (1944)
Month to date precipitation 0.20 0.75  
Year to date precipitation 0.20 0.75  
Snow
Snow 0.00 in in in ()
Month to date snowfall 0.0  
Since 1 July snowfall 0.0  
Snow Depth 0.00 in    
Sea Level Pressure
Sea Level Pressure 30.11 in    
Wind
Wind Speed 8 mph (ESE)    
Max Wind Speed 17 mph    
Max Gust Speed 24 mph    
Visibility 10 miles    
Events      
T = Trace of Precipitation, MM = Missing Value Source: NWS Daily Summary

Show full METARS

(help) - Comma Delimited File

Hourly Observations

Time(EST) Temperature Dew Point Humidity Sea Level Pressure Visibility Wind Direction Wind Speed Gust Speed Precipitation Events Conditions
12:53 AM 72.0°F 64.0°F 76% 30.14 in 10.0 miles ESE 5.8 mph - N/A   Scattered Clouds
1:53 AM 71.1°F 64.0°F 78% 30.14 in 10.0 miles East 4.6 mph - N/A   Scattered Clouds
2:53 AM 70.0°F 64.0°F 81% 30.12 in 10.0 miles East 4.6 mph - N/A   Scattered Clouds
3:53 AM 69.1°F 64.0°F 84% 30.11 in 10.0 miles East 4.6 mph - N/A   Scattered Clouds
4:53 AM 68.0°F 63.0°F 84% 30.10 in 10.0 miles ESE 3.5 mph - N/A   Scattered Clouds
5:53 AM 68.0°F 64.0°F 87% 30.11 in 10.0 miles Calm Calm - N/A   Scattered Clouds
6:53 AM 70.0°F 64.9°F 84% 30.12 in 10.0 miles Calm Calm - N/A   Scattered Clouds
7:53 AM 71.1°F 66.0°F 84% 30.13 in 10.0 miles Calm Calm - N/A   Scattered Clouds
8:53 AM 75.9°F 64.9°F 69% 30.14 in 10.0 miles East 9.2 mph - N/A   Scattered Clouds
9:53 AM 79.0°F 64.9°F 62% 30.15 in 10.0 miles ESE 11.5 mph - N/A   Scattered Clouds
10:53 AM 79.0°F 64.9°F 62% 30.14 in 10.0 miles East 12.7 mph - N/A   Mostly Cloudy
11:53 AM 80.1°F 64.0°F 58% 30.11 in 10.0 miles ESE 12.7 mph 24.2 mph N/A   Scattered Clouds
12:53 PM 81.0°F 64.9°F 58% 30.09 in 10.0 miles ESE 10.4 mph - N/A   Scattered Clouds
1:53 PM 80.1°F 64.0°F 58% 30.09 in 10.0 miles ESE 12.7 mph - N/A   Mostly Cloudy
2:53 PM 79.0°F 64.9°F 62% 30.07 in 10.0 miles ESE 11.5 mph - N/A   Mostly Cloudy
3:53 PM 79.0°F 64.0°F 60% 30.08 in 10.0 miles East 11.5 mph - N/A   Scattered Clouds
4:53 PM 77.0°F 64.0°F 64% 30.10 in 10.0 miles ESE 10.4 mph - N/A   Scattered Clouds
5:53 PM 75.0°F 64.0°F 69% 30.11 in 10.0 miles ESE 10.4 mph - N/A   Scattered Clouds
6:53 PM 73.9°F 63.0°F 68% 30.11 in 10.0 miles ESE 11.5 mph - N/A   Scattered Clouds
7:53 PM 73.0°F 63.0°F 71% 30.10 in 10.0 miles ESE 6.9 mph - N/A   Partly Cloudy
8:53 PM 72.0°F 61.0°F 68% 30.09 in 10.0 miles East 8.1 mph - N/A   Partly Cloudy
9:53 PM 72.0°F 60.1°F 66% 30.08 in 10.0 miles East 6.9 mph - N/A   Partly Cloudy
10:53 PM 71.1°F 62.1°F 73% 30.06 in 10.0 miles East 4.6 mph - N/A   Partly Cloudy
11:53 PM 71.1°F 63.0°F 75% 30.06 in 10.0 miles East 8.1 mph - N/A   Partly Cloudy